Year,Month,Day,Hour,Minute,Value (Times are PST for windgust in km/hr)
2007,05,10,00,00,4.80
2007,05,10,00,01,4.80
2007,05,10,00,02,4.80
2007,05,10,00,03,4.80
2007,05,10,00,04,4.80
2007,05,10,00,05,4.80
2007,05,10,00,06,6.40
2007,05,10,00,07,6.40
2007,05,10,00,08,6.40
2007,05,10,00,09,4.80
2007,05,10,00,10,6.40
2007,05,10,00,11,4.80
2007,05,10,00,12,4.80
2007,05,10,00,13,6.40
2007,05,10,00,14,6.40
2007,05,10,00,15,8.10
2007,05,10,00,16,6.40
2007,05,10,00,17,6.40
2007,05,10,00,18,4.80
2007,05,10,00,19,3.20
2007,05,10,00,20,4.80
2007,05,10,00,21,4.80
2007,05,10,00,22,4.80
2007,05,10,00,23,6.40
2007,05,10,00,24,6.40
2007,05,10,00,25,4.80
2007,05,10,00,26,4.80
2007,05,10,00,27,6.40
2007,05,10,00,28,4.80
2007,05,10,00,29,4.80
2007,05,10,00,30,6.40
2007,05,10,00,31,6.40
2007,05,10,00,32,4.80
2007,05,10,00,33,6.40
2007,05,10,00,34,4.80
2007,05,10,00,35,4.80
2007,05,10,00,36,4.80
2007,05,10,00,37,6.40
2007,05,10,00,38,4.80
2007,05,10,00,39,4.80
2007,05,10,00,40,3.20
2007,05,10,00,41,4.80
2007,05,10,00,42,4.80
2007,05,10,00,43,4.80
2007,05,10,00,44,4.80
2007,05,10,00,45,4.80
2007,05,10,00,46,4.80
2007,05,10,00,47,6.40
2007,05,10,00,48,3.20
2007,05,10,00,49,4.80
2007,05,10,00,50,3.20
2007,05,10,00,51,3.20
2007,05,10,00,52,6.40
2007,05,10,00,53,6.40
2007,05,10,00,54,6.40
2007,05,10,00,55,4.80
2007,05,10,00,56,4.80
2007,05,10,00,57,3.20
2007,05,10,00,58,4.80
2007,05,10,00,59,3.20
2007,05,10,01,00,4.80
2007,05,10,01,01,4.80
2007,05,10,01,02,4.80
2007,05,10,01,03,4.80
2007,05,10,01,04,3.20
2007,05,10,01,05,4.80
2007,05,10,01,06,4.80
2007,05,10,01,07,4.80
2007,05,10,01,08,3.20
2007,05,10,01,09,3.20
2007,05,10,01,10,4.80
2007,05,10,01,11,4.80
2007,05,10,01,12,3.20
2007,05,10,01,13,4.80
2007,05,10,01,14,6.40
2007,05,10,01,15,3.20
2007,05,10,01,16,3.20
2007,05,10,01,17,3.20
2007,05,10,01,18,4.80
2007,05,10,01,19,4.80
2007,05,10,01,20,4.80
2007,05,10,01,21,4.80
2007,05,10,01,22,1.60
2007,05,10,01,23,3.20
2007,05,10,01,24,4.80
2007,05,10,01,25,3.20
2007,05,10,01,26,3.20
2007,05,10,01,27,4.80
2007,05,10,01,28,3.20
2007,05,10,01,29,3.20
2007,05,10,01,30,4.80
2007,05,10,01,31,3.20
2007,05,10,01,32,3.20
2007,05,10,01,33,4.80
2007,05,10,01,34,1.60
2007,05,10,01,35,3.20
2007,05,10,01,36,3.20
2007,05,10,01,37,3.20
2007,05,10,01,38,3.20
2007,05,10,01,39,1.60
2007,05,10,01,40,3.20
2007,05,10,01,41,4.80
2007,05,10,01,42,3.20
2007,05,10,01,43,3.20
2007,05,10,01,44,3.20
2007,05,10,01,45,3.20
2007,05,10,01,46,0.00
2007,05,10,01,47,0.00
2007,05,10,01,48,0.00
2007,05,10,01,49,3.20
2007,05,10,01,50,1.60
2007,05,10,01,51,3.20
2007,05,10,01,52,3.20
2007,05,10,01,53,3.20
2007,05,10,01,54,3.20
2007,05,10,01,55,3.20
2007,05,10,01,56,1.60
2007,05,10,01,57,1.60
2007,05,10,01,58,1.60
2007,05,10,01,59,3.20
2007,05,10,02,00,3.20
2007,05,10,02,01,3.20
2007,05,10,02,02,4.80
2007,05,10,02,03,3.20
2007,05,10,02,04,3.20
2007,05,10,02,05,3.20
2007,05,10,02,06,1.60
2007,05,10,02,07,3.20
2007,05,10,02,08,3.20
2007,05,10,02,09,3.20
2007,05,10,02,10,4.80
2007,05,10,02,11,3.20
2007,05,10,02,12,3.20
2007,05,10,02,13,3.20
2007,05,10,02,14,3.20
2007,05,10,02,15,3.20
2007,05,10,02,16,4.80
2007,05,10,02,17,3.20
2007,05,10,02,18,3.20
2007,05,10,02,19,3.20
2007,05,10,02,20,3.20
2007,05,10,02,21,3.20
2007,05,10,02,22,3.20
2007,05,10,02,23,3.20
2007,05,10,02,24,3.20
2007,05,10,02,25,3.20
2007,05,10,02,26,3.20
2007,05,10,02,27,3.20
2007,05,10,02,28,3.20
2007,05,10,02,29,3.20
2007,05,10,02,30,3.20
2007,05,10,02,31,3.20
2007,05,10,02,32,3.20
2007,05,10,02,33,3.20
2007,05,10,02,34,1.60
2007,05,10,02,35,3.20
2007,05,10,02,36,3.20
2007,05,10,02,37,3.20
2007,05,10,02,38,3.20
2007,05,10,02,39,3.20
2007,05,10,02,40,3.20
2007,05,10,02,41,3.20
2007,05,10,02,42,4.80
2007,05,10,02,43,3.20
2007,05,10,02,44,3.20
2007,05,10,02,45,3.20
2007,05,10,02,46,3.20
2007,05,10,02,47,1.60
2007,05,10,02,48,3.20
2007,05,10,02,49,3.20
2007,05,10,02,50,3.20
2007,05,10,02,51,3.20
2007,05,10,02,52,3.20
2007,05,10,02,53,4.80
2007,05,10,02,54,3.20
2007,05,10,02,55,3.20
2007,05,10,02,56,3.20
2007,05,10,02,57,3.20
2007,05,10,02,58,3.20
2007,05,10,02,59,3.20
2007,05,10,03,00,3.20
2007,05,10,03,01,3.20
2007,05,10,03,02,3.20
2007,05,10,03,03,3.20
2007,05,10,03,04,3.20
2007,05,10,03,05,4.80
2007,05,10,03,06,3.20
2007,05,10,03,07,0.00
2007,05,10,03,08,0.00
2007,05,10,03,09,3.20
2007,05,10,03,10,3.20
2007,05,10,03,11,3.20
2007,05,10,03,12,3.20
2007,05,10,03,13,1.60
2007,05,10,03,14,1.60
2007,05,10,03,15,0.00
2007,05,10,03,16,0.00
2007,05,10,03,17,0.00
2007,05,10,03,18,0.00
2007,05,10,03,19,0.00
2007,05,10,03,20,0.00
2007,05,10,03,21,0.00
2007,05,10,03,22,0.00
2007,05,10,03,23,0.00
2007,05,10,03,24,0.00
2007,05,10,03,25,0.00
2007,05,10,03,26,0.00
2007,05,10,03,27,0.00
2007,05,10,03,28,0.00
2007,05,10,03,29,0.00
2007,05,10,03,30,0.00
2007,05,10,03,31,0.00
2007,05,10,03,32,0.00
2007,05,10,03,33,0.00
2007,05,10,03,34,0.00
2007,05,10,03,35,6.40
2007,05,10,03,36,3.20
2007,05,10,03,37,3.20
2007,05,10,03,38,1.60
2007,05,10,03,39,0.00
2007,05,10,03,40,0.00
2007,05,10,03,41,3.20
2007,05,10,03,42,3.20
2007,05,10,03,43,3.20
2007,05,10,03,44,3.20
2007,05,10,03,45,3.20
2007,05,10,03,46,3.20
2007,05,10,03,47,4.80
2007,05,10,03,48,3.20
2007,05,10,03,49,3.20
2007,05,10,03,50,3.20
2007,05,10,03,51,3.20
2007,05,10,03,52,3.20
2007,05,10,03,53,3.20
2007,05,10,03,54,3.20
2007,05,10,03,55,3.20
2007,05,10,03,56,3.20
2007,05,10,03,57,3.20
2007,05,10,03,58,4.80
2007,05,10,03,59,3.20
2007,05,10,04,00,3.20
2007,05,10,04,01,4.80
2007,05,10,04,02,1.60
2007,05,10,04,03,4.80
2007,05,10,04,04,3.20
2007,05,10,04,05,3.20
2007,05,10,04,06,3.20
2007,05,10,04,07,6.40
2007,05,10,04,08,4.80
2007,05,10,04,09,1.60
2007,05,10,04,10,3.20
2007,05,10,04,11,6.40
2007,05,10,04,12,8.10
2007,05,10,04,13,8.10
2007,05,10,04,14,3.20
2007,05,10,04,15,3.20
2007,05,10,04,16,6.40
2007,05,10,04,17,4.80
2007,05,10,04,18,3.20
2007,05,10,04,19,3.20
2007,05,10,04,20,6.40
2007,05,10,04,21,3.20
2007,05,10,04,22,6.40
2007,05,10,04,23,3.20
2007,05,10,04,24,4.80
2007,05,10,04,25,1.60
2007,05,10,04,26,1.60
2007,05,10,04,27,1.60
2007,05,10,04,28,6.40
2007,05,10,04,29,8.10
2007,05,10,04,30,4.80
2007,05,10,04,31,3.20
2007,05,10,04,32,3.20
2007,05,10,04,33,3.20
2007,05,10,04,34,3.20
2007,05,10,04,35,4.80
2007,05,10,04,36,4.80
2007,05,10,04,37,3.20
2007,05,10,04,38,4.80
2007,05,10,04,39,4.80
2007,05,10,04,40,3.20
2007,05,10,04,41,3.20
2007,05,10,04,42,3.20
2007,05,10,04,43,3.20
2007,05,10,04,44,3.20
2007,05,10,04,45,3.20
2007,05,10,04,46,4.80
2007,05,10,04,47,4.80
2007,05,10,04,48,3.20
2007,05,10,04,49,4.80
2007,05,10,04,50,9.60
2007,05,10,04,51,4.80
2007,05,10,04,52,6.40
2007,05,10,04,53,4.80
2007,05,10,04,54,6.40
2007,05,10,04,55,4.80
2007,05,10,04,56,4.80
2007,05,10,04,57,4.80
2007,05,10,04,58,3.20
2007,05,10,04,59,4.80
2007,05,10,05,00,4.80
2007,05,10,05,01,3.20
2007,05,10,05,02,4.80
2007,05,10,05,03,16.10
2007,05,10,05,04,11.30
2007,05,10,05,05,8.10
2007,05,10,05,06,4.80
2007,05,10,05,07,6.40
2007,05,10,05,08,4.80
2007,05,10,05,09,3.20
2007,05,10,05,10,3.20
2007,05,10,05,11,3.20
2007,05,10,05,12,4.80
2007,05,10,05,13,4.80
2007,05,10,05,14,11.30
2007,05,10,05,15,3.20
2007,05,10,05,16,4.80
2007,05,10,05,17,8.10
2007,05,10,05,18,6.40
2007,05,10,05,19,4.80
2007,05,10,05,20,8.10
2007,05,10,05,21,3.20
2007,05,10,05,22,3.20
2007,05,10,05,23,3.20
2007,05,10,05,24,4.80
2007,05,10,05,25,14.50
2007,05,10,05,26,9.60
2007,05,10,05,27,6.40
2007,05,10,05,28,16.10
2007,05,10,05,29,8.10
2007,05,10,05,30,4.80
2007,05,10,05,31,4.80
2007,05,10,05,32,6.40
2007,05,10,05,33,4.80
2007,05,10,05,34,3.20
2007,05,10,05,35,6.40
2007,05,10,05,36,8.10
2007,05,10,05,37,3.20
2007,05,10,05,38,6.40
2007,05,10,05,39,16.10
2007,05,10,05,40,9.60
2007,05,10,05,41,9.60
2007,05,10,05,42,11.30
2007,05,10,05,43,8.10
2007,05,10,05,44,3.20
2007,05,10,05,45,3.20
2007,05,10,05,46,3.20
2007,05,10,05,47,3.20
2007,05,10,05,48,8.10
2007,05,10,05,49,4.80
2007,05,10,05,50,4.80
2007,05,10,05,51,4.80
2007,05,10,05,52,9.60
2007,05,10,05,53,9.60
2007,05,10,05,54,4.80
2007,05,10,05,55,4.80
2007,05,10,05,56,4.80
2007,05,10,05,57,8.10
2007,05,10,05,58,6.40
2007,05,10,05,59,6.40
2007,05,10,06,00,6.40
2007,05,10,06,01,8.10
2007,05,10,06,02,8.10
2007,05,10,06,03,4.80
2007,05,10,06,04,3.20
2007,05,10,06,05,8.10
2007,05,10,06,06,8.10
2007,05,10,06,07,16.10
2007,05,10,06,08,6.40
2007,05,10,06,09,8.10
2007,05,10,06,10,9.60
2007,05,10,06,11,1.60
2007,05,10,06,12,4.80
2007,05,10,06,13,9.60
2007,05,10,06,14,6.40
2007,05,10,06,15,9.60
2007,05,10,06,16,4.80
2007,05,10,06,17,6.40
2007,05,10,06,18,4.80
2007,05,10,06,19,6.40
2007,05,10,06,20,19.30
2007,05,10,06,21,8.10
2007,05,10,06,22,8.10
2007,05,10,06,23,1.60
2007,05,10,06,24,4.80
2007,05,10,06,25,8.10
2007,05,10,06,26,3.20
2007,05,10,06,27,1.60
2007,05,10,06,28,9.60
2007,05,10,06,29,3.20
2007,05,10,06,30,0.00
2007,05,10,06,31,6.40
2007,05,10,06,32,3.20
2007,05,10,06,33,9.60
2007,05,10,06,34,6.40
2007,05,10,06,35,3.20
2007,05,10,06,36,3.20
2007,05,10,06,37,4.80
2007,05,10,06,38,4.80
2007,05,10,06,39,20.90
2007,05,10,06,40,8.10
2007,05,10,06,41,1.60
2007,05,10,06,42,3.20
2007,05,10,06,43,9.60
2007,05,10,06,44,11.30
2007,05,10,06,45,6.40
2007,05,10,06,46,3.20
2007,05,10,06,47,6.40
2007,05,10,06,48,6.40
2007,05,10,06,49,3.20
2007,05,10,06,50,8.10
2007,05,10,06,51,6.40
2007,05,10,06,52,1.60
2007,05,10,06,53,4.80
2007,05,10,06,54,6.40
2007,05,10,06,55,9.60
2007,05,10,06,56,6.40
2007,05,10,06,57,4.80
2007,05,10,06,58,8.10
2007,05,10,06,59,4.80
2007,05,10,07,00,3.20
2007,05,10,07,01,4.80
2007,05,10,07,02,3.20
2007,05,10,07,03,11.30
2007,05,10,07,04,8.10
2007,05,10,07,05,11.30
2007,05,10,07,06,9.60
2007,05,10,07,07,8.10
2007,05,10,07,08,6.40
2007,05,10,07,09,1.60
2007,05,10,07,10,3.20
2007,05,10,07,11,4.80
2007,05,10,07,12,4.80
2007,05,10,07,13,8.10
2007,05,10,07,14,6.40
2007,05,10,07,15,3.20
2007,05,10,07,16,4.80
2007,05,10,07,17,8.10
2007,05,10,07,18,6.40
2007,05,10,07,19,0.00
2007,05,10,07,20,1.60
2007,05,10,07,21,4.80
2007,05,10,07,22,3.20
2007,05,10,07,23,1.60
2007,05,10,07,24,0.00
2007,05,10,07,25,4.80
2007,05,10,07,26,11.30
2007,05,10,07,27,8.10
2007,05,10,07,28,3.20
2007,05,10,07,29,4.80
2007,05,10,07,30,3.20
2007,05,10,07,31,8.10
2007,05,10,07,32,0.00
2007,05,10,07,33,9.60
2007,05,10,07,34,14.50
2007,05,10,07,35,4.80
2007,05,10,07,36,4.80
2007,05,10,07,37,3.20
2007,05,10,07,38,11.30
2007,05,10,07,39,1.60
2007,05,10,07,40,3.20
2007,05,10,07,41,17.70
2007,05,10,07,42,17.70
2007,05,10,07,43,9.60
2007,05,10,07,44,14.50
2007,05,10,07,45,8.10
2007,05,10,07,46,4.80
2007,05,10,07,47,1.60
2007,05,10,07,48,9.60
2007,05,10,07,49,8.10
2007,05,10,07,50,3.20
2007,05,10,07,51,1.60
2007,05,10,07,52,6.40
2007,05,10,07,53,11.30
2007,05,10,07,54,11.30
2007,05,10,07,55,3.20
2007,05,10,07,56,4.80
2007,05,10,07,57,6.40
2007,05,10,07,58,8.10
2007,05,10,07,59,9.60
2007,05,10,08,00,14.50
2007,05,10,08,01,9.60
2007,05,10,08,02,19.30
2007,05,10,08,03,16.10
2007,05,10,08,04,9.60
2007,05,10,08,05,19.30
2007,05,10,08,06,11.30
2007,05,10,08,07,6.40
2007,05,10,08,08,8.10
2007,05,10,08,09,9.60
2007,05,10,08,10,9.60
2007,05,10,08,11,6.40
2007,05,10,08,12,4.80
2007,05,10,08,13,4.80
2007,05,10,08,14,3.20
2007,05,10,08,15,8.10
2007,05,10,08,16,14.50
2007,05,10,08,17,22.50
2007,05,10,08,18,4.80
2007,05,10,08,19,3.20
2007,05,10,08,20,3.20
2007,05,10,08,21,4.80
2007,05,10,08,22,3.20
2007,05,10,08,23,4.80
2007,05,10,08,24,4.80
2007,05,10,08,25,14.50
2007,05,10,08,26,8.10
2007,05,10,08,27,20.90
2007,05,10,08,28,6.40
2007,05,10,08,29,9.60
2007,05,10,08,30,3.20
2007,05,10,08,31,4.80
2007,05,10,08,32,6.40
2007,05,10,08,33,14.50
2007,05,10,08,34,14.50
2007,05,10,08,35,11.30
2007,05,10,08,36,14.50
2007,05,10,08,37,17.70
2007,05,10,08,38,6.40
2007,05,10,08,39,11.30
2007,05,10,08,40,11.30
2007,05,10,08,41,4.80
2007,05,10,08,42,8.10
2007,05,10,08,43,11.30
2007,05,10,08,44,9.60
2007,05,10,08,45,16.10
2007,05,10,08,46,14.50
2007,05,10,08,47,11.30
2007,05,10,08,48,6.40
2007,05,10,08,49,6.40
2007,05,10,08,50,9.60
2007,05,10,08,51,4.80
2007,05,10,08,52,4.80
2007,05,10,08,53,1.60
2007,05,10,08,54,11.30
2007,05,10,08,55,17.70
2007,05,10,08,56,11.30
2007,05,10,08,57,8.10
2007,05,10,08,58,6.40
2007,05,10,08,59,6.40
2007,05,10,09,00,11.30
2007,05,10,09,01,8.10
2007,05,10,09,02,8.10
2007,05,10,09,03,16.10
2007,05,10,09,04,4.80
2007,05,10,09,05,4.80
2007,05,10,09,06,8.10
2007,05,10,09,07,9.60
2007,05,10,09,08,11.30
2007,05,10,09,09,8.10
2007,05,10,09,10,8.10
2007,05,10,09,11,14.50
2007,05,10,09,12,11.30
2007,05,10,09,13,3.20
2007,05,10,09,14,4.80
2007,05,10,09,15,8.10
2007,05,10,09,16,6.40
2007,05,10,09,17,8.10
2007,05,10,09,18,6.40
2007,05,10,09,19,8.10
2007,05,10,09,20,1.60
2007,05,10,09,21,11.30
2007,05,10,09,22,6.40
2007,05,10,09,23,4.80
2007,05,10,09,24,8.10
2007,05,10,09,25,4.80
2007,05,10,09,26,1.60
2007,05,10,09,27,3.20
2007,05,10,09,28,9.60
2007,05,10,09,29,3.20
2007,05,10,09,30,4.80
2007,05,10,09,31,6.40
2007,05,10,09,32,6.40
2007,05,10,09,33,3.20
2007,05,10,09,34,11.30
2007,05,10,09,35,9.60
2007,05,10,09,36,16.10
2007,05,10,09,37,9.60
2007,05,10,09,38,19.30
2007,05,10,09,39,9.60
2007,05,10,09,40,11.30
2007,05,10,09,41,4.80
2007,05,10,09,42,8.10
2007,05,10,09,43,6.40
2007,05,10,09,44,1.60
2007,05,10,09,45,1.60
2007,05,10,09,46,0.00
2007,05,10,09,47,3.20
2007,05,10,09,48,6.40
2007,05,10,09,49,9.60
2007,05,10,09,50,1.60
2007,05,10,09,51,8.10
2007,05,10,09,52,8.10
2007,05,10,09,53,4.80
2007,05,10,09,54,3.20
2007,05,10,09,55,6.40
2007,05,10,09,56,1.60
2007,05,10,09,57,9.60
2007,05,10,09,58,8.10
2007,05,10,09,59,8.10
2007,05,10,10,00,3.20
2007,05,10,10,01,4.80
2007,05,10,10,02,3.20
2007,05,10,10,03,8.10
2007,05,10,10,04,6.40
2007,05,10,10,05,4.80
2007,05,10,10,06,4.80
2007,05,10,10,07,1.60
2007,05,10,10,08,4.80
2007,05,10,10,09,8.10
2007,05,10,10,10,6.40
2007,05,10,10,11,6.40
2007,05,10,10,12,4.80
2007,05,10,10,13,8.10
2007,05,10,10,14,3.20
2007,05,10,10,15,3.20
2007,05,10,10,16,3.20
2007,05,10,10,17,8.10
2007,05,10,10,18,4.80
2007,05,10,10,19,3.20
2007,05,10,10,20,11.30
2007,05,10,10,21,6.40
2007,05,10,10,22,1.60
2007,05,10,10,23,8.10
2007,05,10,10,24,6.40
2007,05,10,10,25,6.40
2007,05,10,10,26,11.30
2007,05,10,10,27,11.30
2007,05,10,10,28,4.80
2007,05,10,10,29,1.60
2007,05,10,10,30,4.80
2007,05,10,10,31,6.40
2007,05,10,10,32,4.80
2007,05,10,10,33,6.40
2007,05,10,10,34,4.80
2007,05,10,10,35,3.20
2007,05,10,10,36,1.60
2007,05,10,10,37,3.20
2007,05,10,10,38,3.20
2007,05,10,10,39,6.40
2007,05,10,10,40,4.80
2007,05,10,10,41,3.20
2007,05,10,10,42,1.60
2007,05,10,10,43,3.20
2007,05,10,10,44,4.80
2007,05,10,10,45,3.20
2007,05,10,10,46,3.20
2007,05,10,10,47,3.20
2007,05,10,10,48,6.40
2007,05,10,10,49,3.20
2007,05,10,10,50,1.60
2007,05,10,10,51,1.60
2007,05,10,10,52,4.80
2007,05,10,10,53,4.80
2007,05,10,10,54,3.20
2007,05,10,10,55,6.40
2007,05,10,10,56,4.80
2007,05,10,10,57,4.80
2007,05,10,10,58,4.80
2007,05,10,10,59,4.80
2007,05,10,11,00,4.80
2007,05,10,11,01,4.80
2007,05,10,11,02,4.80
2007,05,10,11,03,3.20
2007,05,10,11,04,3.20
2007,05,10,11,05,1.60
2007,05,10,11,06,4.80
2007,05,10,11,07,3.20
2007,05,10,11,08,4.80
2007,05,10,11,09,4.80
2007,05,10,11,10,4.80
2007,05,10,11,11,4.80
2007,05,10,11,12,1.60
2007,05,10,11,13,6.40
2007,05,10,11,14,8.10
2007,05,10,11,15,4.80
2007,05,10,11,16,4.80
2007,05,10,11,17,4.80
2007,05,10,11,18,4.80
2007,05,10,11,19,3.20
2007,05,10,11,20,3.20
2007,05,10,11,21,3.20
2007,05,10,11,22,3.20
2007,05,10,11,23,1.60
2007,05,10,11,24,3.20
2007,05,10,11,25,3.20
2007,05,10,11,26,3.20
2007,05,10,11,27,6.40
2007,05,10,11,28,3.20
2007,05,10,11,29,6.40
2007,05,10,11,30,4.80
2007,05,10,11,31,3.20
2007,05,10,11,32,6.40
2007,05,10,11,33,3.20
2007,05,10,11,34,4.80
2007,05,10,11,35,4.80
2007,05,10,11,36,4.80
2007,05,10,11,37,3.20
2007,05,10,11,38,4.80
2007,05,10,11,39,4.80
2007,05,10,11,40,4.80
2007,05,10,11,41,3.20
2007,05,10,11,42,4.80
2007,05,10,11,43,3.20
2007,05,10,11,44,3.20
2007,05,10,11,45,3.20
2007,05,10,11,46,6.40
2007,05,10,11,47,3.20
2007,05,10,11,48,4.80
2007,05,10,11,49,4.80
2007,05,10,11,50,4.80
2007,05,10,11,51,3.20
2007,05,10,11,52,4.80
2007,05,10,11,53,4.80
2007,05,10,11,54,4.80
2007,05,10,11,55,3.20
2007,05,10,11,56,3.20
2007,05,10,11,57,4.80
2007,05,10,11,58,4.80
2007,05,10,11,59,3.20
2007,05,10,12,00,3.20
2007,05,10,12,01,3.20
2007,05,10,12,02,4.80
2007,05,10,12,03,4.80
2007,05,10,12,04,3.20
2007,05,10,12,05,4.80
2007,05,10,12,06,1.60
2007,05,10,12,07,1.60
2007,05,10,12,08,3.20
2007,05,10,12,09,0.00
2007,05,10,12,10,4.80
2007,05,10,12,11,4.80
2007,05,10,12,12,4.80
2007,05,10,12,13,4.80
2007,05,10,12,14,4.80
2007,05,10,12,15,3.20
2007,05,10,12,16,3.20
2007,05,10,12,17,6.40
2007,05,10,12,18,4.80
2007,05,10,12,19,3.20
2007,05,10,12,20,4.80
2007,05,10,12,21,4.80
2007,05,10,12,22,4.80
2007,05,10,12,23,4.80
2007,05,10,12,24,4.80
2007,05,10,12,25,3.20
2007,05,10,12,26,4.80
2007,05,10,12,27,4.80
2007,05,10,12,28,1.60
2007,05,10,12,29,4.80
2007,05,10,12,30,3.20
2007,05,10,12,31,3.20
2007,05,10,12,32,3.20
2007,05,10,12,33,1.60
2007,05,10,12,34,4.80
2007,05,10,12,35,4.80
2007,05,10,12,36,4.80
2007,05,10,12,37,4.80
2007,05,10,12,38,3.20
2007,05,10,12,39,4.80
2007,05,10,12,40,3.20
2007,05,10,12,41,4.80
2007,05,10,12,42,6.40
2007,05,10,12,43,4.80
2007,05,10,12,44,3.20
2007,05,10,12,45,3.20
2007,05,10,12,46,4.80
2007,05,10,12,47,3.20
2007,05,10,12,48,3.20
2007,05,10,12,49,4.80
2007,05,10,12,50,4.80
2007,05,10,12,51,4.80
2007,05,10,12,52,3.20
2007,05,10,12,53,4.80
2007,05,10,12,54,3.20
2007,05,10,12,55,3.20
2007,05,10,12,56,3.20
2007,05,10,12,57,3.20
2007,05,10,12,58,4.80
2007,05,10,12,59,4.80
2007,05,10,13,00,4.80
2007,05,10,13,01,3.20
2007,05,10,13,02,3.20
2007,05,10,13,03,4.80
2007,05,10,13,04,4.80
2007,05,10,13,05,3.20
2007,05,10,13,06,4.80
2007,05,10,13,07,3.20
2007,05,10,13,08,3.20
2007,05,10,13,09,4.80
2007,05,10,13,10,3.20
2007,05,10,13,11,4.80
2007,05,10,13,12,6.40
2007,05,10,13,13,3.20
2007,05,10,13,14,4.80
2007,05,10,13,15,4.80
2007,05,10,13,16,4.80
2007,05,10,13,17,6.40
2007,05,10,13,18,8.10
2007,05,10,13,19,6.40
2007,05,10,13,20,4.80
2007,05,10,13,21,3.20
2007,05,10,13,22,3.20
2007,05,10,13,23,3.20
2007,05,10,13,24,4.80
2007,05,10,13,25,3.20
2007,05,10,13,26,3.20
2007,05,10,13,27,4.80
2007,05,10,13,28,4.80
2007,05,10,13,29,3.20
2007,05,10,13,30,3.20
2007,05,10,13,31,4.80
2007,05,10,13,32,6.40
2007,05,10,13,33,4.80
2007,05,10,13,34,6.40
2007,05,10,13,35,4.80
2007,05,10,13,36,6.40
2007,05,10,13,37,4.80
2007,05,10,13,38,1.60
2007,05,10,13,39,1.60
2007,05,10,13,40,3.20
2007,05,10,13,41,3.20
2007,05,10,13,42,3.20
2007,05,10,13,43,3.20
2007,05,10,13,44,6.40
2007,05,10,13,45,3.20
2007,05,10,13,46,4.80
2007,05,10,13,47,3.20
2007,05,10,13,48,4.80
2007,05,10,13,49,3.20
2007,05,10,13,50,1.60
2007,05,10,13,51,3.20
2007,05,10,13,52,3.20
2007,05,10,13,53,4.80
2007,05,10,13,54,4.80
2007,05,10,13,55,4.80
2007,05,10,13,56,4.80
2007,05,10,13,57,4.80
2007,05,10,13,58,4.80
2007,05,10,13,59,4.80
2007,05,10,14,00,4.80
2007,05,10,14,01,3.20
2007,05,10,14,02,4.80
2007,05,10,14,03,4.80
2007,05,10,14,04,4.80
2007,05,10,14,05,4.80
2007,05,10,14,06,4.80
2007,05,10,14,07,4.80
2007,05,10,14,08,4.80
2007,05,10,14,09,3.20
2007,05,10,14,10,3.20
2007,05,10,14,11,3.20
2007,05,10,14,12,4.80
2007,05,10,14,13,4.80
2007,05,10,14,14,3.20
2007,05,10,14,15,3.20
2007,05,10,14,16,3.20
2007,05,10,14,17,3.20
2007,05,10,14,18,1.60
2007,05,10,14,19,1.60
2007,05,10,14,20,1.60
2007,05,10,14,21,0.00
2007,05,10,14,22,0.00
2007,05,10,14,23,3.20
2007,05,10,14,24,4.80
2007,05,10,14,25,3.20
2007,05,10,14,26,3.20
2007,05,10,14,27,1.60
2007,05,10,14,28,3.20
2007,05,10,14,29,3.20
2007,05,10,14,30,3.20
2007,05,10,14,31,3.20
2007,05,10,14,32,3.20
2007,05,10,14,33,3.20
2007,05,10,14,34,1.60
2007,05,10,14,35,3.20
2007,05,10,14,36,0.00
2007,05,10,14,37,0.00
2007,05,10,14,38,1.60
2007,05,10,14,39,1.60
2007,05,10,14,40,1.60
2007,05,10,14,41,1.60
2007,05,10,14,42,1.60
2007,05,10,14,43,1.60
2007,05,10,14,44,1.60
2007,05,10,14,45,3.20
2007,05,10,14,46,1.60
2007,05,10,14,47,1.60
2007,05,10,14,48,3.20
2007,05,10,14,49,3.20
2007,05,10,14,50,3.20
2007,05,10,14,51,1.60
2007,05,10,14,52,1.60
2007,05,10,14,53,3.20
2007,05,10,14,54,1.60
2007,05,10,14,55,1.60
2007,05,10,14,56,1.60
2007,05,10,14,57,1.60
2007,05,10,14,58,1.60
2007,05,10,14,59,1.60
2007,05,10,15,00,3.20
2007,05,10,15,01,3.20
2007,05,10,15,02,1.60
2007,05,10,15,03,0.00
2007,05,10,15,04,6.40
2007,05,10,15,05,3.20
2007,05,10,15,06,3.20
2007,05,10,15,07,1.60
2007,05,10,15,08,3.20
2007,05,10,15,09,3.20
2007,05,10,15,10,1.60
2007,05,10,15,11,1.60
2007,05,10,15,12,1.60
2007,05,10,15,13,4.80
2007,05,10,15,14,4.80
2007,05,10,15,15,4.80
2007,05,10,15,16,3.20
2007,05,10,15,17,3.20
2007,05,10,15,18,1.60
2007,05,10,15,19,0.00
2007,05,10,15,20,0.00
2007,05,10,15,21,0.00
2007,05,10,15,22,0.00
2007,05,10,15,23,1.60
2007,05,10,15,24,0.00
2007,05,10,15,25,0.00
2007,05,10,15,26,3.20
2007,05,10,15,27,3.20
2007,05,10,15,28,3.20
2007,05,10,15,29,1.60
2007,05,10,15,30,0.00
2007,05,10,15,31,3.20
2007,05,10,15,32,1.60
2007,05,10,15,33,3.20
2007,05,10,15,34,3.20
2007,05,10,15,35,0.00
2007,05,10,15,36,3.20
2007,05,10,15,37,3.20
2007,05,10,15,38,3.20
2007,05,10,15,39,1.60
2007,05,10,15,40,1.60
2007,05,10,15,41,1.60
2007,05,10,15,42,1.60
2007,05,10,15,43,3.20
2007,05,10,15,44,3.20
2007,05,10,15,45,1.60
2007,05,10,15,46,3.20
2007,05,10,15,47,3.20
2007,05,10,15,48,3.20
2007,05,10,15,49,1.60
2007,05,10,15,50,1.60
2007,05,10,15,51,3.20
2007,05,10,15,52,1.60
2007,05,10,15,53,1.60
2007,05,10,15,54,3.20
2007,05,10,15,55,3.20
2007,05,10,15,56,0.00
2007,05,10,15,57,0.00
2007,05,10,15,58,1.60
2007,05,10,15,59,3.20
2007,05,10,16,00,3.20
2007,05,10,16,01,4.80
2007,05,10,16,02,3.20
2007,05,10,16,03,1.60
2007,05,10,16,04,1.60
2007,05,10,16,05,1.60
2007,05,10,16,06,1.60
2007,05,10,16,07,0.00
2007,05,10,16,08,1.60
2007,05,10,16,09,1.60
2007,05,10,16,10,1.60
2007,05,10,16,11,3.20
2007,05,10,16,12,3.20
2007,05,10,16,13,3.20
2007,05,10,16,14,3.20
2007,05,10,16,15,3.20
2007,05,10,16,16,1.60
2007,05,10,16,17,1.60
2007,05,10,16,18,0.00
2007,05,10,16,19,0.00
2007,05,10,16,20,3.20
2007,05,10,16,21,1.60
2007,05,10,16,22,0.00
2007,05,10,16,23,0.00
2007,05,10,16,24,0.00
2007,05,10,16,25,0.00
2007,05,10,16,26,1.60
2007,05,10,16,27,0.00
2007,05,10,16,28,0.00
2007,05,10,16,29,0.00
2007,05,10,16,30,1.60
2007,05,10,16,31,1.60
2007,05,10,16,32,1.60
2007,05,10,16,33,1.60
2007,05,10,16,34,0.00
2007,05,10,16,35,0.00
2007,05,10,16,36,0.00
2007,05,10,16,37,0.00
2007,05,10,16,38,0.00
2007,05,10,16,39,0.00
2007,05,10,16,40,0.00
2007,05,10,16,41,0.00
2007,05,10,16,42,1.60
2007,05,10,16,43,0.00
2007,05,10,16,44,0.00
2007,05,10,16,45,0.00
2007,05,10,16,46,0.00
2007,05,10,16,47,0.00
2007,05,10,16,48,0.00
2007,05,10,16,49,1.60
2007,05,10,16,50,4.80
2007,05,10,16,51,1.60
2007,05,10,16,52,3.20
2007,05,10,16,53,1.60
2007,05,10,16,54,1.60
2007,05,10,16,55,1.60
2007,05,10,16,56,1.60
2007,05,10,16,57,1.60
2007,05,10,16,58,1.60
2007,05,10,16,59,0.00
2007,05,10,17,00,0.00
2007,05,10,17,01,0.00
2007,05,10,17,02,0.00
2007,05,10,17,03,0.00
2007,05,10,17,04,0.00
2007,05,10,17,05,1.60
2007,05,10,17,06,1.60
2007,05,10,17,07,1.60
2007,05,10,17,08,0.00
2007,05,10,17,09,3.20
2007,05,10,17,10,3.20
2007,05,10,17,11,0.00
2007,05,10,17,12,1.60
2007,05,10,17,13,0.00
2007,05,10,17,14,0.00
2007,05,10,17,15,0.00
2007,05,10,17,16,0.00
2007,05,10,17,17,0.00
2007,05,10,17,18,0.00
2007,05,10,17,19,0.00
2007,05,10,17,20,0.00
2007,05,10,17,21,0.00
2007,05,10,17,22,0.00
2007,05,10,17,23,3.20
2007,05,10,17,24,0.00
2007,05,10,17,25,0.00
2007,05,10,17,26,0.00
2007,05,10,17,27,0.00
2007,05,10,17,28,0.00
2007,05,10,17,29,0.00
2007,05,10,17,30,0.00
2007,05,10,17,31,0.00
2007,05,10,17,32,0.00
2007,05,10,17,33,0.00
2007,05,10,17,34,0.00
2007,05,10,17,35,0.00
2007,05,10,17,36,0.00
2007,05,10,17,37,3.20
2007,05,10,17,38,0.00
2007,05,10,17,39,1.60
2007,05,10,17,40,0.00
2007,05,10,17,41,1.60
2007,05,10,17,42,0.00
2007,05,10,17,43,0.00
2007,05,10,17,44,0.00
2007,05,10,17,45,0.00
2007,05,10,17,46,0.00
2007,05,10,17,47,0.00
2007,05,10,17,48,0.00
2007,05,10,17,49,0.00
2007,05,10,17,50,0.00
2007,05,10,17,51,0.00
2007,05,10,17,52,0.00
2007,05,10,17,53,0.00
2007,05,10,17,54,0.00
2007,05,10,17,55,0.00
2007,05,10,17,56,0.00
2007,05,10,17,57,0.00
2007,05,10,17,58,0.00
2007,05,10,17,59,0.00
2007,05,10,18,00,0.00
2007,05,10,18,01,0.00
2007,05,10,18,02,0.00
2007,05,10,18,03,0.00
2007,05,10,18,04,1.60